MAROC TUBSAT

Satellite information

Favourite Embed

Satellite Type and Status

PAYLOADIN ORBIT

Key statistics

Satellite MAROC TUBSAT at a glance.

Uptime

8673

Days in orbit

Revolutions

≈ 13.7

Per day

Orbit

SSO

Sun Synchronous Orbit

Inclination

99.8

Latest

Satellite identification and parameters

Extended collection of information and parameters for MAROC TUBSAT.

Object identification

Identified? True

Debris? False

Object name: MAROC TUBSAT

International designator: 2001-056D

Object number (NORAD): 27004

Object ID (CCSDS): 27004

Country: GERMANY (GER)

Current information (Y/N): Y

RCS size: MEDIUM

Orbital parameters

Period: 105.091 minutes

Inclination: 99.7879 deg

SMA: 7376.822 km

Apoapsis: 1013.654 km

Periapsis: 983.721 km

RAAN: 57.7366 deg

Eccentricy: 0.00202886

Argument of periapsis: 144.1151 deg

Mean anomaly: 337.6424 deg

Mean motion: 13.70246693 rev/day

Mean motion (dot): -0.00000025 rev/day2

B* drag term: 0.000023753978 1/REarth

Two-line elements (TLE)

Creation date: Sept. 8, 2025, 3:16 a.m.

Reference frame: TEME

Reference center: EARTH

Epoch: Sept. 7, 2025, 10:47 p.m. UTC

TLE line 0: 0 MAROC TUBSAT

TLE line 1: 1 27004U 01056D 25250.94962549 -.00000025 00000-0 23754-4 0 9990

TLE line 2: 2 27004 99.7879 57.7366 0020289 144.1151 337.6424 13.70246693187530

Live tracking on map

Real-time ground track for satellite MAROC TUBSAT.

In-orbit conjunctions

There are no conjunctions computed for MAROC TUBSAT, at the moment. Check back to stay up to date, as we update our databases every day.

Go to all conjunctions

Associated space launch

Meteor-3M No.1 is the first and so far only of the Meteor-3M series polar-orbit weather satellites.

MAROC TUBSAT was lifted into orbit during the mission ‘Zenit-2 | Meteor-3M No. 1’, on board a Zenit-2 space rocket.

The launch took place on Dec. 10, 2001, 5:18 p.m. from 45/1.

For more information about the launch, click the button.

Launch to space Zenit-2 | Meteor-3M No. 1
Zenit-2 | Meteor-3M No. 1

Agency: N/A

Status: Launch Successful

Launch date: Dec. 10, 2001, 5:18 p.m. UTC

Rocket: Zenit-2

Launch pad: 45/1

Location: Baikonur Cosmodrome, Republic of Kazakhstan

...

Latest news about this satellite

There are no fresh news available about this satellite. Check back as we update our databases every day.


Newsletter sign-up

Weekly statistics, charts and insights to help you stay on top of the space industry.